This is the latest recevied weather packets stored in our database for station/object KE5KUL-13. If no packets are shown the sender has not sent any weather packets the latest 10 day(s).
| Time | Temp. | Humidity | Pressure | Rain* | Wind** | Luminosity | Snow |
|---|---|---|---|---|---|---|---|
| 1777475419 | 12.22° C | 62% | 1020.7 hPa | 0 mm | - | - | - |
| 1777474818 | 11.67° C | 64% | 1020.6 hPa | 0 mm | - | - | - |
| 1777474218 | 11.67° C | 65% | 1020.9 hPa | 0 mm | - | - | - |
| 1777473618 | 11.67° C | 65% | 1021.1 hPa | 0 mm | - | - | - |
| 1777473019 | 10.56° C | 68% | 1021.1 hPa | 0 mm | - | - | - |
| 1777472418 | 10.56° C | 67% | 1021.2 hPa | 0 mm | - | - | - |
| 1777471818 | 10° C | 69% | 1021 hPa | 0 mm | - | - | - |
| 1777471218 | 9.44° C | 71% | 1021.2 hPa | 0 mm | - | - | - |
| 1777470618 | 8.89° C | 73% | 1021.2 hPa | 0 mm | - | - | - |
| 1777470018 | 8.33° C | 76% | 1021 hPa | 0 mm | - | - | - |
| 1777469418 | 7.78° C | 77% | 1020.9 hPa | 0 mm | - | - | - |
| 1777468818 | 7.22° C | 78% | 1020.6 hPa | 0 mm | - | - | - |
| 1777468218 | 7.22° C | 79% | 1020.6 hPa | 0 mm | - | - | - |
| 1777467618 | 6.67° C | 79% | 1020.6 hPa | 0 mm | - | - | - |
| 1777467018 | 6.67° C | 79% | 1020.6 hPa | 0 mm | - | - | - |
| 1777466418 | 6.67° C | 79% | 1020.6 hPa | 0 mm | - | - | - |
| 1777465818 | 6.67° C | 78% | 1020.9 hPa | 0 mm | - | - | - |
| 1777465218 | 6.67° C | 78% | 1021.1 hPa | 0 mm | - | - | - |
| 1777464618 | 6.67° C | 77% | 1021.1 hPa | 0 mm | - | - | - |
| 1777464018 | 6.67° C | 77% | 1021.2 hPa | 0 mm | - | - | - |
| 1777463418 | 7.22° C | 77% | 1021 hPa | 0 mm | - | - | - |
| 1777462818 | 7.22° C | 76% | 1021.1 hPa | 0 mm | - | - | - |
| 1777462218 | 7.22° C | 76% | 1020.7 hPa | 0 mm | - | - | - |
| 1777461618 | 7.78° C | 75% | 1020.4 hPa | 0 mm | - | - | - |
| 1777461018 | 7.78° C | 74% | 1020.3 hPa | 0 mm | - | - | - |
* Rain latest hour (hover to see other rain measurements)
** Current wind speed in m/s (hover to see current wind gust speed)